Temperature
18 17 17 16 16 15 15 15 14 14 14 13 13 13 13 13 13 13 13 12 12 12 12 12 12 12 12 13 13 13 13 13 13 13 13 13 14 14 14 14 14 15 15
18 18 17 17 16 16 15 15 14 14 14 14 13 13 13 13 13 13 13 13 12 12 12 12 12 12 12 12 12 13 13 13 13 13 13 13 13 13 14 14 14 14 14
18 18 17 17 16 16 16 15 15 14 14 14 14 13 13 13 13 13 13 13 13 12 12 12 12 12 12 12 12 12 12 13 13 13 13 13 13 13 13 13 13 14 14
18 18 18 17 17 16 16 15 15 14 14 14 14 14 13 13 13 13 13 13 13 13 12 12 12 12 12 12 12 12 12 12 12 12 13 13 13 13 13 13 13 13 13
18 18 18 17 17 16 16 16 15 15 14 14 14 14 14 13 13 13 13 13 13 13 13 13 13 12 12 12 12 12 12 12 12 12 12 12 12 12 12 13 13 13 13
18 18 18 17 17 17 16 16 15 15 15 14 14 14 14 14 13 13 13 13 13 13 13 13 13 13 12 12 12 12 12 12 12 12 12 12 12 12 12 12 12 13 13
18 18 18 17 17 17 16 16 16 15 15 15 14 14 14 14 14 14 13 13 13 13 13 13 13 13 13 12 12 12 12 12 12 12 12 12 12 12 12 12 12 12 12
18 18 17 17 17 17 16 16 16 16 15 15 15 15 14 14 14 14 13 13 13 13 13 13 13 13 13 13 12 12 12 12 12 12 12 12 12 12 12 12 12 12 12
17 17 17 17 17 17 16 16 16 16 16 15 15 15 15 15 14 14 14 13 13 13 13 13 13 13 13 12 12 12 12 12 12 12 12 12 12 12 12 12 11 11 11
16 16 16 16 16 16 16 16 16 16 16 16 15 15 15 15 14 14 14 13 13 13 13 13 13 13 13 12 12 12 12 12 12 12 12 12 12 11 11 11 11 11 11
15 16 16 16 16 16 16 16 16 16 15 15 15 15 15 15 15 14 14 14 13 13 13 13 13 13 12 12 12 12 12 12 12 12 11 11 11 11 11 11 11 11 11
15 15 15 16 16 15 16 16 16 15 15 15 15 15 15 15 15 14 14 14 14 13 13 13 13 13 12 12 12 12 12 12 12 11 11 11 11 11 11 11 11 11 10
14 15 15 15 15 15 15 15 15 15 15 15 15 15 15 15 15 15 14 14 13 13 13 13 13 12 12 12 12 12 12 11 11 11 11 11 11 11 10 10 10 10 10
13 14 14 14 14 15 15 15 15 15 14 14 14 15 15 15 15 15 14 14 13 13 13 13 12 12 12 12 12 11 11 11 11 11 11 11 10 10 10 10 10 10 9
12 13 13 13 13 14 14 14 14 15 14 14 14 15 15 15 15 15 14 14 14 13 13 12 12 12 11 11 11 11 11 11 11 11 10 10 10 10 10 9 9 9 9
11 12 12 12 12 13 13 14 14 14 14 14 14 14 14 14 15 14 14 14 13 13 13 12 12 12 11 11 11 11 10 10 10 10 10 10 10 9 9 9 9 9 9
10 10 11 11 11 11 12 12 13 14 14 14 14 14 14 14 14 14 14 14 13 13 12 12 12 12 11 11 11 10 10 10 10 10 9 9 9 9 9 8 8 8 8
9 9 9 10 10 10 11 11 11 12 12 13 14 14 13 13 13 13 13 13 13 12 12 12 12 12 11 11 10 10 10 10 9 9 9 9 9 8 8 8 8 8 7
8 8 8 9 9 9 10 10 11 11 11 12 13 13 13 13 13 12 12 12 13 13 13 13 12 12 11 11 10 10 10 9 9 9 8 8 8 8 8 7 7 7 7
7 7 8 8 8 9 9 9 10 10 10 11 12 12 12 12 12 12 12 12 13 13 13 13 12 12 11 10 10 10 9 9 8 8 8 8 8 7 7 7 7 6 6
7 7 7 7 7 8 8 8 9 9 9 10 11 11 11 11 12 12 12 13 13 13 13 12 12 12 11 10 10 9 9 9 8 8 8 7 7 7 7 6 6 6 6
6 6 6 6 7 7 7 7 8 8 9 9 10 10 10 10 11 11 12 12 12 12 12 12 12 11 11 10 10 9 9 8 8 7 7 7 7 6 6 6 6 5 5
5 5 6 6 6 6 6 7 7 8 8 8 9 9 10 10 10 11 11 11 12 12 11 11 11 11 10 10 10 9 9 8 8 7 7 7 6 6 6 5 5 5 4
5 5 5 5 5 5 6 6 6 7 7 8 8 9 9 10 10 10 10 11 11 11 11 10 10 10 10 9 9 8 8 8 7 7 6 6 6 5 5 5 4 4 4
5 5 4 5 5 5 5 5 6 6 7 7 8 8 9 9 9 9 10 10 10 10 10 10 10 9 9 9 8 8 7 7 7 6 6 5 5 5 4 4 4 4 3
4 4 4 4 4 4 4 5 5 5 6 7 7 8 8 8 9 9 9 9 9 9 9 9 9 9 8 8 7 7 7 6 6 5 5 5 5 4 4 4 3 3 3
Wind_Speed
8 8 7 7 7 6 6 6 6 4 4 4 4 3 3 2 1 1 1 1 0 1 1 0 1 1 1 1 1 1 1 2 2 1 1 1 1 2 2 3 2 1 1
8 8 8 7 7 7 7 7 6 6 5 5 4 3 3 3 2 2 3 2 1 1 1 1 1 0 0 1 0 0 0 1 2 1 1 2 2 1 1 1 2 2 2
7 8 8 8 8 9 9 7 6 6 5 5 4 5 5 4 4 4 3 3 3 3 2 2 2 1 1 1 1 1 0 1 1 2 0 1 2 1 2 2 2 2 3
7 8 10 10 10 10 9 8 7 7 6 6 6 6 5 5 4 4 4 3 3 3 3 3 3 3 3 3 2 1 1 2 2 2 0 1 1 1 1 1 2 2 2
6 9 11 10 9 8 8 8 7 7 8 7 6 5 5 5 5 6 5 5 4 4 3 3 4 5 5 4 3 3 3 2 2 1 1 0 1 1 0 0 0 2 2
6 9 9 8 8 9 9 8 8 8 7 7 7 7 6 6 8 10 8 5 5 5 5 4 4 5 5 6 6 6 6 4 4 3 2 2 2 2 1 1 1 1 1
5 7 6 7 8 10 9 9 10 9 8 8 8 8 8 9 10 10 11 7 6 6 6 5 4 4 4 3 4 5 4 5 6 5 4 4 3 4 3 2 2 1 1
5 6 6 6 8 8 8 10 11 9 9 9 9 9 8 9 12 11 11 8 6 6 6 6 6 5 4 5 4 3 2 3 4 4 4 4 4 4 4 3 2 1 1
5 7 7 7 8 8 9 11 10 9 10 9 8 10 10 10 12 12 10 6 6 7 6 6 7 6 8 8 6 5 3 2 3 5 5 3 3 3 4 3 2 1 1
8 8 7 7 8 9 11 10 9 9 11 10 10 10 11 10 11 13 12 6 6 6 5 5 9 9 9 9 7 6 6 4 3 2 2 1 1 1 3 3 3 2 1
10 9 7 7 8 10 9 8 7 9 9 9 10 9 10 11 12 13 13 8 8 6 6 5 6 10 10 10 9 7 8 5 4 4 3 2 1 1 1 1 2 3 2
10 9 8 8 8 7 8 8 7 8 9 10 9 9 8 9 10 12 14 14 11 8 7 6 6 9 9 9 7 7 8 6 4 4 3 2 1 1 1 1 2 2 2
11 10 10 9 8 7 7 8 6 7 8 9 9 10 9 7 9 13 14 15 15 9 7 8 9 9 7 5 7 8 7 5 5 4 3 3 2 1 1 2 3 3 3
11 11 10 8 8 7 6 6 7 7 9 9 10 10 9 7 8 8 8 8 11 9 6 7 8 8 6 5 4 4 4 5 5 5 4 3 2 2 2 2 2 1 2
11 11 10 8 9 8 7 7 9 10 10 12 11 10 10 11 13 15 12 9 9 9 8 4 4 4 4 3 3 3 3 4 4 4 4 4 3 3 2 2 2 2 2
11 11 9 8 8 7 7 8 10 11 13 16 16 13 12 14 14 17 18 16 16 17 10 6 7 7 7 7 6 5 4 5 5 5 5 5 4 4 3 2 2 2 2
11 11 10 9 9 8 7 8 9 9 10 12 15 16 15 14 15 17 18 17 17 18 8 8 8 9 8 8 7 6 5 5 5 6 6 5 5 4 4 3 3 3 2
11 13 12 9 9 9 9 9 8 8 8 8 9 14 16 16 16 17 17 13 10 11 8 8 9 9 8 8 8 6 6 6 5 6 6 5 5 5 4 4 3 3 2
11 9 10 10 9 9 9 9 8 9 9 8 6 7 11 12 14 15 17 10 11 11 10 9 9 9 9 9 8 8 8 7 7 7 6 6 6 5 5 4 4 4 3
9 17 16 11 9 9 8 8 8 8 8 8 8 7 6 6 7 10 11 10 10 11 11 11 10 10 10 9 9 9 8 8 8 7 7 6 6 6 6 6 5 4 2
9 12 18 14 10 10 9 9 9 9 9 9 9 9 12 10 11 12 12 12 12 12 11 11 10 10 10 10 10 10 10 9 8 8 8 7 7 6 5 5 5 4 3
9 10 10 11 10 10 10 9 9 9 10 10 8 8 14 10 9 10 11 11 11 10 10 11 10 10 11 12 12 11 11 10 9 9 8 8 7 7 6 5 4 4 3
9 11 11 11 11 13 12 10 9 9 10 10 9 7 9 10 10 10 11 10 9 9 9 10 10 10 9 10 11 12 12 12 11 11 10 9 8 7 6 5 5 4 3
9 11 12 11 11 11 11 11 10 10 10 9 9 9 9 11 10 10 10 9 9 9 10 10 11 13 15 12 10 10 11 12 13 12 12 10 9 7 6 5 5 5 4
9 10 11 11 11 11 11 11 10 10 10 9 9 9 9 9 9 9 9 9 11 11 12 11 10 13 16 16 14 12 16 19 17 14 11 9 9 8 7 6 5 4 3
10 11 11 10 10 11 11 11 11 10 9 9 9 9 9 9 9 9 9 10 10 11 11 11 12 15 17 16 17 19 21 20 19 18 13 9 9 8 7 6 6 5 4
Wind_Direction
209 210 210 210 207 204 211 222 223 224 224 229 232 235 237 236 236 243 259 259 238 310 326 12 337 10 33 22 57 84 114 141 158 285 321 328 4 21 13 22 31 52 27
210 208 216 213 202 207 219 224 218 221 224 222 220 222 230 227 221 229 250 238 221 246 267 261 279 277 39 12 67 102 141 155 156 172 353 360 6 353 11 18 5 20 10
208 208 214 213 209 215 221 221 216 217 222 220 211 216 225 225 224 229 228 228 226 233 235 232 246 202 228 236 216 196 180 112 125 150 25 1 358 355 26 21 10 1 358
211 211 217 218 216 218 217 215 214 213 214 216 213 218 222 223 222 225 220 220 226 235 231 226 225 215 219 214 210 208 161 113 105 116 113 3 350 342 46 28 6 6 350
219 220 225 224 221 219 217 215 213 212 215 214 214 220 223 221 222 215 215 216 220 233 241 237 235 231 225 210 197 190 165 147 137 143 188 334 323 4 16 338 351 340 340
230 233 232 225 220 219 220 216 212 214 215 210 213 216 224 229 231 219 207 208 212 220 236 247 249 245 243 232 219 197 183 176 178 175 193 201 228 223 201 175 157 42 328
244 246 236 226 225 225 221 214 216 215 210 212 216 214 224 235 238 229 213 199 207 218 225 234 242 230 222 215 221 207 206 209 194 177 189 212 212 207 180 180 185 185 237
261 260 245 233 234 231 220 221 222 215 211 215 218 215 221 234 234 231 218 200 208 220 222 221 226 236 222 201 190 190 212 229 213 196 198 214 216 202 186 178 175 183 289
283 275 263 242 238 232 229 230 225 215 216 215 214 211 216 231 230 225 211 195 213 227 228 221 218 226 233 206 183 191 209 241 223 198 199 202 201 193 171 142 141 133 320
293 283 276 258 242 238 236 236 228 218 221 217 219 215 213 222 224 219 205 193 209 224 227 227 223 221 224 201 187 188 201 215 180 154 132 84 73 110 166 169 171 169 184
302 292 282 271 254 246 241 240 232 222 219 218 220 220 216 219 223 218 205 195 205 211 217 221 223 220 213 204 193 195 206 189 165 158 142 115 84 77 85 129 158 170 175
309 297 286 277 269 263 247 243 234 220 219 220 221 226 224 221 219 221 214 205 198 198 211 213 212 204 200 196 194 198 193 170 148 145 142 143 139 130 89 90 108 116 127
321 306 293 288 276 265 250 244 239 221 222 225 220 226 228 219 219 218 215 210 201 198 206 200 194 189 185 186 189 186 176 162 155 159 171 179 177 160 114 87 69 81 79
321 314 302 294 288 276 262 247 236 229 227 226 224 227 226 217 214 210 208 207 199 196 191 184 175 171 162 158 161 169 169 170 170 170 169 156 133 120 104 102 101 87 81
317 315 310 296 287 278 266 253 246 238 230 225 227 223 218 223 220 202 193 195 191 185 160 144 148 154 165 162 154 150 153 156 159 154 150 147 141 130 111 95 106 94 101
318 316 312 305 296 284 278 283 267 255 252 241 231 222 226 224 210 197 197 194 184 170 157 170 181 184 184 184 179 174 171 171 168 160 157 156 154 147 133 107 99 111 116
309 308 307 304 300 291 279 273 284 288 269 252 240 229 224 217 206 198 196 190 181 170 174 185 187 189 189 185 182 180 182 179 166 161 160 159 152 146 137 131 123 115 115
306 307 307 297 293 288 278 271 266 268 277 275 253 235 227 218 206 198 186 169 180 185 192 190 192 189 186 184 183 180 173 163 161 162 159 157 155 149 145 145 144 141 139
306 303 300 295 289 284 280 276 269 262 262 267 269 247 228 217 204 193 175 183 190 195 197 195 191 187 184 182 179 175 170 169 166 163 162 159 157 150 150 151 149 145 139
304 308 312 302 293 288 281 277 273 267 263 259 252 240 207 192 199 195 195 198 196 196 194 193 191 186 182 178 174 170 167 166 165 163 163 161 158 155 157 157 157 156 160
297 303 309 307 295 287 280 274 272 268 263 259 254 235 204 207 210 205 202 203 202 198 194 190 186 182 179 174 171 171 169 170 169 165 162 161 158 156 155 156 156 155 152
291 294 296 295 294 291 285 278 273 270 266 263 262 240 214 215 217 212 208 207 203 197 188 182 182 181 179 176 173 171 171 170 168 165 162 159 156 154 152 152 152 154 157
288 292 295 293 292 290 288 280 275 272 269 266 257 239 220 219 219 216 210 202 192 185 179 177 175 174 174 173 172 171 172 173 171 165 161 159 158 159 157 159 162 162 170
284 288 291 291 292 290 286 282 276 274 271 265 255 242 229 221 218 214 206 193 184 180 177 177 175 173 168 166 166 166 165 162 160 161 157 158 159 159 158 160 165 168 170
283 287 289 287 288 289 287 284 278 273 271 265 255 246 235 224 216 208 196 187 181 179 176 173 171 168 166 162 161 161 159 155 154 155 154 153 156 158 158 162 166 165 171
283 285 287 285 284 284 284 282 279 274 270 267 257 246 234 222 213 202 188 180 178 177 172 170 167 163 162 162 159 156 155 154 153 152 153 152 153 157 157 160 165 168 171
Height
1503 1504 1504 1505 1506 1506 1506 1506 1506 1506 1507 1506 1506 1506 1505 1504 1504 1503 1503 1502 1501 1500 1500 1499 1499 1499 1499 1498 1498 1498 1499 1500 1500 1501 1502 1502 1503 1504 1505 1506 1507 1508 1509
1500 1501 1502 1503 1503 1503 1504 1504 1504 1504 1505 1505 1505 1504 1504 1503 1503 1502 1502 1501 1501 1500 1499 1499 1499 1498 1498 1498 1498 1498 1498 1498 1499 1499 1500 1501 1501 1502 1503 1504 1504 1505 1506
1496 1497 1498 1499 1500 1500 1501 1501 1502 1502 1502 1502 1502 1502 1502 1502 1502 1501 1501 1500 1500 1500 1499 1498 1498 1498 1498 1497 1497 1497 1497 1497 1498 1498 1499 1499 1500 1501 1501 1502 1503 1504 1504
1492 1493 1493 1495 1496 1497 1498 1498 1499 1499 1499 1500 1500 1500 1500 1500 1500 1500 1499 1499 1499 1499 1498 1498 1497 1497 1497 1497 1496 1496 1496 1496 1497 1497 1497 1498 1499 1499 1499 1500 1501 1502 1502
1488 1488 1489 1491 1492 1493 1494 1494 1495 1495 1496 1496 1497 1497 1497 1497 1498 1498 1498 1497 1497 1497 1497 1497 1496 1496 1496 1496 1496 1495 1495 1495 1496 1496 1496 1497 1497 1497 1498 1499 1499 1499 1500
1484 1484 1485 1486 1487 1488 1489 1490 1491 1491 1492 1492 1493 1493 1494 1494 1495 1495 1495 1495 1495 1495 1495 1495 1495 1495 1495 1495 1495 1494 1494 1495 1495 1495 1495 1495 1495 1496 1496 1497 1497 1497 1498
1480 1480 1481 1481 1482 1483 1484 1485 1486 1487 1487 1488 1489 1489 1490 1491 1491 1492 1492 1492 1492 1492 1493 1493 1493 1493 1493 1493 1493 1493 1493 1493 1493 1494 1493 1494 1494 1494 1495 1495 1495 1495 1496
1477 1477 1477 1477 1477 1477 1478 1479 1480 1481 1482 1482 1483 1484 1485 1486 1487 1488 1488 1488 1488 1489 1489 1489 1490 1490 1490 1491 1491 1491 1491 1491 1491 1492 1492 1492 1492 1493 1493 1493 1493 1494 1494
1474 1473 1473 1473 1472 1472 1472 1472 1473 1475 1475 1476 1477 1479 1479 1481 1482 1483 1484 1484 1484 1484 1485 1485 1486 1486 1487 1487 1488 1488 1489 1489 1489 1490 1490 1490 1490 1490 1491 1491 1491 1492 1492
1472 1470 1469 1468 1467 1466 1466 1466 1467 1467 1468 1470 1471 1472 1473 1475 1476 1477 1478 1478 1479 1479 1480 1481 1481 1482 1483 1483 1484 1484 1485 1486 1487 1487 1487 1488 1488 1488 1488 1489 1489 1489 1489
1468 1466 1464 1463 1462 1461 1460 1460 1460 1460 1461 1462 1463 1465 1467 1468 1470 1471 1472 1472 1473 1474 1475 1475 1476 1477 1478 1479 1480 1480 1481 1483 1483 1484 1485 1485 1485 1486 1486 1487 1487 1487 1487
1464 1461 1459 1457 1456 1455 1454 1453 1453 1453 1453 1454 1455 1457 1458 1461 1462 1464 1465 1466 1467 1468 1469 1470 1472 1473 1473 1474 1475 1476 1478 1479 1479 1480 1481 1482 1483 1483 1484 1484 1484 1484 1485
1459 1456 1454 1452 1450 1449 1448 1447 1446 1446 1446 1446 1447 1448 1450 1452 1454 1456 1458 1460 1461 1462 1463 1465 1466 1467 1468 1469 1470 1472 1473 1474 1475 1476 1478 1479 1480 1480 1481 1481 1481 1482 1482
1454 1451 1448 1445 1443 1442 1441 1440 1439 1438 1438 1438 1439 1440 1441 1443 1446 1448 1450 1452 1454 1456 1457 1459 1461 1462 1463 1464 1465 1467 1468 1470 1471 1473 1474 1475 1476 1477 1478 1478 1479 1479 1479
1449 1446 1442 1439 1437 1434 1433 1432 1432 1431 1431 1431 1431 1432 1433 1434 1437 1440 1442 1444 1446 1449 1451 1453 1454 1456 1457 1458 1460 1462 1464 1465 1467 1468 1470 1471 1473 1474 1475 1475 1476 1476 1476
1444 1440 1437 1433 1430 1428 1425 1423 1423 1423 1423 1422 1423 1424 1424 1427 1429 1432 1434 1437 1440 1442 1444 1445 1447 1449 1451 1453 1455 1457 1459 1460 1462 1464 1466 1468 1469 1470 1471 1472 1472 1473 1473
1440 1435 1431 1428 1424 1421 1418 1416 1413 1413 1413 1413 1413 1415 1416 1418 1420 1423 1426 1429 1432 1434 1436 1437 1440 1442 1444 1447 1449 1451 1453 1456 1458 1460 1462 1463 1465 1466 1467 1468 1469 1469 1469
1435 1430 1426 1422 1418 1415 1412 1409 1407 1405 1403 1402 1404 1405 1407 1409 1411 1414 1418 1421 1423 1425 1427 1429 1432 1435 1438 1440 1443 1446 1448 1451 1453 1455 1457 1459 1460 1462 1463 1464 1465 1465 1466
1428 1424 1420 1415 1411 1408 1405 1402 1400 1398 1396 1395 1395 1395 1397 1400 1402 1405 1408 1410 1413 1415 1418 1422 1425 1428 1431 1434 1437 1440 1443 1445 1448 1450 1452 1454 1456 1457 1459 1460 1461 1462 1462
1422 1418 1413 1409 1404 1400 1397 1394 1392 1390 1388 1387 1386 1387 1388 1390 1392 1394 1397 1400 1403 1407 1410 1414 1417 1421 1424 1427 1431 1434 1437 1439 1442 1445 1447 1449 1451 1453 1454 1456 1457 1457 1458
1416 1411 1406 1402 1397 1393 1390 1387 1384 1382 1380 1378 1378 1378 1380 1381 1382 1385 1387 1390 1394 1398 1402 1406 1410 1413 1417 1420 1424 1427 1430 1433 1436 1439 1442 1444 1446 1448 1450 1451 1452 1453 1453
1409 1404 1400 1395 1391 1386 1383 1380 1377 1374 1371 1370 1369 1370 1371 1372 1373 1376 1378 1381 1385 1389 1394 1398 1402 1406 1409 1413 1417 1420 1423 1427 1430 1433 1436 1439 1441 1443 1445 1446 1447 1448 1449
1402 1397 1392 1388 1384 1379 1375 1372 1369 1366 1363 1362 1361 1361 1361 1362 1364 1366 1369 1373 1377 1381 1385 1390 1394 1398 1402 1406 1410 1414 1417 1421 1424 1428 1431 1433 1436 1438 1440 1441 1443 1444 1444
1394 1390 1385 1380 1376 1372 1368 1364 1361 1358 1356 1354 1353 1352 1352 1353 1355 1357 1361 1364 1369 1373 1377 1382 1386 1391 1395 1400 1404 1408 1412 1416 1419 1423 1426 1429 1431 1433 1435 1437 1438 1439 1440
1387 1382 1378 1373 1369 1364 1360 1356 1353 1350 1348 1345 1344 1344 1344 1345 1346 1349 1352 1356 1361 1365 1369 1374 1379 1384 1388 1393 1397 1402 1406 1410 1414 1417 1421 1423 1426 1428 1430 1432 1433 1434 1435
1379 1375 1370 1365 1361 1356 1352 1348 1345 1342 1339 1337 1336 1336 1336 1337 1338 1341 1344 1348 1353 1357 1362 1367 1372 1377 1382 1387 1392 1396 1401 1405 1408 1412 1415 1418 1421 1423 1425 1427 1428 1430 1430